Hearne, TX

9:02 PM CST on December 05, 2016 (GMT -0600)
Hearne

Weather History for KLHB - November, 2013

Change the Weather History Date:

Friday, November 22, 2013

  Actual Average (KCLL) Record (KCLL)
Temperature  
Mean Temperature 54 °F 58 °F  
Max Temperature 72 °F 69 °F 86 °F (1955)
Min Temperature 37 °F 48 °F 29 °F (1945)
Degree Days  
Heating Degree Days 10 8  
Month to date heating degree days 114  
Since 1 July heating degree days 151  
Cooling Degree Days 0 1  
Month to date cooling degree days 52  
Year to date cooling degree days 3064  
Growing Degree Days 4 (Base 50)    
Moisture  
Dew Point 41 °F    
Average Humidity 91    
Maximum Humidity 94    
Minimum Humidity 85    
Precipitation  
Precipitation 0.82 in 0.09 in 2.87 in (2004)
Month to date precipitation 2.40  
Year to date precipitation 36.01  
Sea Level Pressure  
Sea Level Pressure 30.30 in    
Wind  
Wind Speed 15 mph (NW)    
Max Wind Speed 25 mph    
Max Gust Speed 33 mph    
Visibility 8 miles    
Events Rain , Thunderstorm    
T = Trace of Precipitation, MM = Missing Value Source: NWS Daily Summary

Daily Weather History Graph

Daily Weather History Graph

Search for Another Location

Airport or City:

Trip Planner

Search our weather history database for the weather conditions in past years. The results will help you decide how hot, cold, wet, or windy it might be!

Date:

Astronomy

Nov. 22, 2013 Rise Set
Actual Time 6:59 AM CST 5:25 PM CST
Civil Twilight 6:33 AM CST 5:51 PM CST
Nautical Twilight 6:03 AM CST 6:21 PM CST
Astronomical Twilight 5:35 AM CST 6:50 PM CST
Moon 9:53 PM CST (11/22) 10:47 AM CST (11/22)
Length of Visible Light 11h 18m
Length of Day
10h 26m
Waning Gibbous, 78% of the Moon is Illuminated
Nov 22
Waning Gibbous
Nov 25
Last Quarter
Dec 2
New
Dec 9
First Quarter
Dec 17
Full

Hourly Weather History & Observations

Time (CST) Temp. Windchill Dew Point Humidity Pressure Visibility Wind Dir Wind Speed Gust Speed Precip Events Conditions
12:15 AM 72.9 °F - 70.7 °F 93% 30.06 in 10.0 mi SE 8.1 mph - N/A   Overcast
12:35 AM 72.7 °F - 70.7 °F 93% 30.07 in 7.0 mi SE 4.6 mph - N/A Thunderstorm Overcast
12:55 AM 72.5 °F - 70.7 °F 94% 30.07 in 7.0 mi Calm Calm - N/A Thunderstorm Mostly Cloudy
1:15 AM 70.7 °F - 67.5 °F 89% 30.09 in 7.0 mi NW 25.3 mph 33.4 mph N/A Thunderstorm Thunderstorm
1:35 AM 53.6 °F - 51.3 °F 92% 30.12 in 10.0 mi NW 15.0 mph 31.1 mph N/A Thunderstorm Thunderstorm
1:55 AM 52.0 °F - 49.5 °F 91% 30.15 in 10.0 mi NW 24.2 mph 28.8 mph N/A Rain , Thunderstorm Light Thunderstorms and Rain
2:15 AM 50.2 °F - 48.0 °F 92% 30.15 in 7.0 mi NNW 18.4 mph 26.5 mph 0.03 in Rain , Thunderstorm Heavy Thunderstorms and Rain
2:35 AM 49.5 °F - 47.3 °F 92% 30.16 in 10.0 mi NW 19.6 mph 28.8 mph 0.03 in Rain Light Rain
2:55 AM 48.7 °F - 46.6 °F 92% 30.17 in 10.0 mi NW 17.3 mph 27.6 mph 0.03 in   Light Drizzle
3:15 AM 47.8 °F - 45.5 °F 92% 30.18 in 10.0 mi NW 17.3 mph 27.6 mph 0.01 in Rain Light Rain
3:35 AM 46.9 °F - 44.6 °F 92% 30.18 in 10.0 mi NNW 21.9 mph 27.6 mph 0.01 in Rain , Thunderstorm Light Thunderstorms and Rain
3:55 AM 46.4 °F 39.0 °F 43.9 °F 91% 30.19 in 10.0 mi NW 19.6 mph 26.5 mph 0.01 in Thunderstorm Overcast
4:15 AM 45.7 °F 38.6 °F 42.8 °F 90% 30.21 in 10.0 mi NW 17.3 mph 31.1 mph N/A   Overcast
4:35 AM 45.5 °F 39.2 °F 42.8 °F 90% 30.21 in 10.0 mi NW 13.8 mph 21.9 mph N/A   Overcast
4:55 AM 44.6 °F 37.2 °F 42.1 °F 91% 30.22 in 10.0 mi NNW 17.3 mph 20.7 mph N/A Thunderstorm Overcast
5:15 AM 44.1 °F 35.0 °F 41.0 °F 89% 30.23 in 10.0 mi NW 24.2 mph 28.8 mph N/A Thunderstorm Overcast
5:35 AM 43.7 °F 35.2 °F 40.6 °F 89% 30.24 in 10.0 mi NNW 20.7 mph 27.6 mph N/A   Overcast
5:55 AM 43.3 °F 34.5 °F 40.3 °F 89% 30.25 in 10.0 mi NNW 21.9 mph 28.8 mph N/A Rain , Thunderstorm Light Thunderstorms and Rain
6:15 AM 43.3 °F 36.8 °F 40.8 °F 91% 30.27 in 10.0 mi NNW 12.7 mph 18.4 mph N/A Rain , Thunderstorm Light Thunderstorms and Rain
6:35 AM 43.2 °F 36.2 °F 40.8 °F 91% 30.28 in 7.0 mi NW 13.8 mph - N/A Rain , Thunderstorm Rain
6:55 AM 42.4 °F 34.7 °F 40.3 °F 92% 30.28 in 10.0 mi NW 16.1 mph 21.9 mph 0.03 in Rain Light Rain
7:15 AM 42.8 °F 36.2 °F 40.3 °F 91% 30.28 in 10.0 mi NNW 12.7 mph 25.3 mph N/A Thunderstorm Overcast
7:35 AM 42.8 °F 34.3 °F 40.3 °F 91% 30.29 in 10.0 mi NNW 19.6 mph 23.0 mph N/A Thunderstorm Overcast
7:55 AM 42.8 °F 35.4 °F 40.1 °F 90% 30.31 in 10.0 mi NNW 15.0 mph 24.2 mph N/A Thunderstorm Overcast
8:15 AM 42.8 °F 34.5 °F 39.2 °F 87% 30.31 in 10.0 mi NNW 18.4 mph 27.6 mph N/A   Overcast
8:35 AM 43.0 °F 35.4 °F 39.9 °F 89% 30.34 in 10.0 mi NW 16.1 mph 21.9 mph N/A   Overcast
8:55 AM 42.4 °F 35.3 °F 39.6 °F 90% 30.33 in 10.0 mi NNW 13.8 mph - N/A   Overcast
9:15 AM 42.4 °F 34.4 °F 39.2 °F 88% 30.34 in 10.0 mi NNW 17.3 mph 23.0 mph N/A   Overcast
9:35 AM 42.8 °F 35.4 °F 39.2 °F 87% 30.34 in 10.0 mi NNW 15.0 mph 25.3 mph N/A   Overcast
9:55 AM 42.8 °F 33.8 °F 38.7 °F 85% 30.34 in 10.0 mi NNW 21.9 mph 25.3 mph N/A   Overcast
10:15 AM 42.3 °F 32.8 °F 38.5 °F 86% 30.35 in 7.0 mi NW 23.0 mph 28.8 mph N/A   Overcast
10:35 AM 41.9 °F 32.8 °F 38.7 °F 88% 30.37 in 7.0 mi NNW 20.7 mph 25.3 mph N/A   Overcast
10:55 AM 42.1 °F 34.9 °F 39.0 °F 89% 30.37 in 7.0 mi NNW 13.8 mph 19.6 mph N/A   Overcast
11:15 AM 42.3 °F 35.1 °F 39.4 °F 90% 30.36 in 7.0 mi NNW 13.8 mph - N/A   Overcast
11:35 AM 42.1 °F 33.9 °F 39.4 °F 90% 30.34 in 4.0 mi NNW 17.3 mph 20.7 mph 0.01 in Rain Rain
11:55 AM 41.7 °F 33.1 °F 39.4 °F 91% 30.34 in 5.0 mi NNW 18.4 mph 24.2 mph 0.01 in   Overcast
12:15 PM 41.2 °F 32.7 °F 38.8 °F 91% 30.34 in 5.0 mi NNW 17.3 mph 24.2 mph N/A   Overcast
12:35 PM 41.0 °F 31.6 °F 38.5 °F 91% 30.33 in 7.0 mi NW 20.7 mph 25.3 mph N/A   Overcast
12:55 PM 41.0 °F 32.8 °F 37.6 °F 88% 30.34 in 10.0 mi NW 16.1 mph 23.0 mph N/A   Overcast
1:15 PM 41.2 °F 32.1 °F 38.1 °F 89% 30.33 in 4.0 mi NNW 19.6 mph 24.2 mph N/A   Overcast
1:35 PM 40.3 °F 31.3 °F 37.2 °F 89% 30.33 in 3.0 mi NW 18.4 mph 28.8 mph N/A   Overcast
1:55 PM 40.3 °F 31.0 °F 37.2 °F 89% 30.32 in 7.0 mi NNW 19.6 mph 31.1 mph N/A   Overcast
2:15 PM 40.1 °F 32.0 °F 37.4 °F 90% 30.32 in 5.0 mi NW 15.0 mph 21.9 mph 0.01 in   Unknown
2:35 PM 39.7 °F 31.9 °F 37.4 °F 91% 30.32 in 5.0 mi NW 13.8 mph 20.7 mph 0.01 in Rain Light Rain
2:55 PM 39.7 °F 30.9 °F 37.2 °F 91% 30.33 in 7.0 mi NW 17.3 mph - 0.01 in   Overcast
3:15 PM 39.7 °F 30.6 °F 37.0 °F 90% 30.33 in 7.0 mi NW 18.4 mph 23.0 mph N/A   Overcast
3:35 PM 39.7 °F 31.2 °F 37.0 °F 90% 30.33 in 7.0 mi NW 16.1 mph 20.7 mph N/A   Overcast
3:55 PM 39.2 °F 31.6 °F 36.7 °F 91% 30.32 in 2.0 mi NW 12.7 mph 21.9 mph 0.06 in Rain Heavy Rain
4:15 PM 39.2 °F 30.8 °F 36.5 °F 90% 30.33 in 10.0 mi NW 15.0 mph 26.5 mph N/A   Light Drizzle
4:35 PM 38.7 °F 28.8 °F 36.1 °F 91% 30.34 in 2.5 mi NW 19.6 mph 25.3 mph 0.04 in Rain Rain
4:55 PM 38.5 °F 29.9 °F 36.3 °F 92% 30.34 in 7.0 mi NW 15.0 mph 20.7 mph 0.05 in Rain Rain
5:15 PM 38.3 °F 29.3 °F 36.0 °F 91% 30.36 in 3.0 mi NW 16.1 mph 20.7 mph 0.08 in Rain Light Rain
5:35 PM 38.3 °F 30.1 °F 36.1 °F 92% 30.35 in 3.0 mi NW 13.8 mph - 0.12 in Rain Rain
5:55 PM 37.8 °F 29.4 °F 35.8 °F 93% 30.35 in 5.0 mi NW 13.8 mph 20.7 mph 0.15 in Rain Rain
6:15 PM 37.9 °F 28.5 °F 36.0 °F 93% 30.36 in 7.0 mi NW 17.3 mph 21.9 mph 0.01 in Rain Rain
6:35 PM 37.9 °F 29.2 °F 36.0 °F 93% 30.36 in 10.0 mi NW 15.0 mph 19.6 mph 0.01 in Rain Rain
6:55 PM 38.3 °F 30.5 °F 36.0 °F 91% 30.38 in 10.0 mi NW 12.7 mph 18.4 mph 0.02 in Rain Light Rain
7:15 PM 38.3 °F 30.1 °F 36.1 °F 92% 30.37 in 10.0 mi NW 13.8 mph 18.4 mph N/A   Drizzle
7:35 PM 38.3 °F 30.9 °F 36.0 °F 91% 30.38 in 10.0 mi NW 11.5 mph - N/A Rain Light Rain
7:55 PM 37.9 °F 29.6 °F 36.0 °F 93% 30.38 in 10.0 mi NW 13.8 mph 20.7 mph N/A   Overcast
8:15 PM 37.9 °F 29.6 °F 35.8 °F 92% 30.38 in 5.0 mi NW 13.8 mph - 0.01 in Rain Rain
8:35 PM 37.8 °F 28.6 °F 35.8 °F 93% 30.38 in 7.0 mi NW 16.1 mph 20.7 mph 0.08 in Rain Light Rain
8:55 PM 38.3 °F 30.5 °F 36.1 °F 92% 30.38 in 10.0 mi NW 12.7 mph 20.7 mph 0.08 in   Overcast
9:15 PM 37.8 °F 30.7 °F 35.8 °F 93% 30.39 in 10.0 mi NW 10.4 mph - N/A   Overcast
9:35 PM 37.9 °F 29.2 °F 36.0 °F 93% 30.39 in 10.0 mi NW 15.0 mph 18.4 mph N/A Thunderstorm Overcast
9:55 PM 37.9 °F 30.9 °F 35.6 °F 91% 30.39 in 5.0 mi NW 10.4 mph 20.7 mph N/A Thunderstorm Overcast
10:15 PM 37.9 °F 30.0 °F 35.8 °F 92% 30.39 in 7.0 mi NW 12.7 mph - N/A   Overcast
10:35 PM 37.6 °F 29.6 °F 35.6 °F 93% 30.39 in 4.0 mi NW 12.7 mph - 0.03 in Rain Heavy Rain
10:55 PM 37.2 °F 27.9 °F 35.4 °F 93% 30.39 in 1.8 mi NW 16.1 mph 21.9 mph 0.15 in Rain Rain
11:15 PM 37.4 °F 29.3 °F 35.6 °F 93% 30.38 in 3.0 mi NNW 12.7 mph 18.4 mph 0.15 in Rain Heavy Rain
11:35 PM 37.6 °F 29.6 °F 36.0 °F 94% 30.38 in 4.0 mi NW 12.7 mph - 0.22 in Rain Light Rain
11:55 PM 38.1 °F 30.7 °F 36.3 °F 93% 30.38 in 10.0 mi NW 11.5 mph 18.4 mph 0.22 in   Overcast